When you browse on this site, cookies collect data to enhance your experience and personalize the content and advertising you see.
Visit our Privacy Policy to learn more. By continuing to use the site, you agree to this use of cookies and data.
  • In Austria
  • List of Countries
  • For 7 days
  • Water Temperature
  • Weather Map
  • News
  • Weather Widgets
  • user-avatar
    Login

    Hourly Weather El Quseir

    Today, 20 August, Tuesday

    Time Temperature Precipitation Wind Pressure Humidity
    00:00 +29°C° 0 mm 7 mps 755 mmHg 36%
    01:00 +28°C° 0 mm 7 mps 755 mmHg 36%
    02:00 +28°C° 0 mm 6 mps 755 mmHg 36%
    03:00 +27°C° 0 mm 7 mps 755 mmHg 37%
    04:00 +27°C° 0 mm 7 mps 755 mmHg 38%
    05:00 +26°C° 0 mm 8 mps 755 mmHg 39%
    06:00 +29°C° 0 mm 7 mps 756 mmHg 34%
    07:00 +32°C° 0 mm 6 mps 756 mmHg 29%
    08:00 +35°C° 0 mm 6 mps 756 mmHg 25%
    09:00 +36°C° 0 mm 6 mps 756 mmHg 24%
    10:00 +39°C° 0 mm 6 mps 756 mmHg 23%
    11:00 +40°C° 0 mm 6 mps 756 mmHg 23%
    12:00 +41°C° 0 mm 6 mps 755 mmHg 22%
    13:00 +41°C° 0 mm 5 mps 755 mmHg 22%
    14:00 +42°C° 0 mm 5 mps 755 mmHg 22%
    15:00 +40°C° 0 mm 4 mps 755 mmHg 24%
    16:00 +38°C° 0 mm 4 mps 755 mmHg 27%
    17:00 +37°C° 0 mm 4 mps 755 mmHg 29%
    18:00 +35°C° 0 mm 5 mps 755 mmHg 32%
    19:00 +33°C° 0 mm 5 mps 755 mmHg 35%
    20:00 +30°C° 0 mm 5 mps 755 mmHg 38%
    21:00 +30°C° 0 mm 5 mps 755 mmHg 34%
    22:00 +32°C° 0 mm 5 mps 755 mmHg 30%
    23:00 +32°C° 0 mm 4 mps 755 mmHg 26%

    Tomorrow, 21 August, Wednesday

    Time Temperature Precipitation Wind Pressure Humidity
    00:00 +30°C° 0 mm 5 mps 755 mmHg 26%
    01:00 +30°C° 0 mm 5 mps 755 mmHg 26%
    02:00 +29°C° 0 mm 6 mps 754 mmHg 26%
    03:00 +28°C° 0 mm 7 mps 754 mmHg 30%
    04:00 +28°C° 0 mm 8 mps 754 mmHg 34%
    05:00 +27°C° 0 mm 8 mps 754 mmHg 37%
    06:00 +29°C° 0 mm 8 mps 755 mmHg 33%
    07:00 +33°C° 0 mm 8 mps 755 mmHg 28%
    08:00 +37°C° 0 mm 8 mps 755 mmHg 24%
    09:00 +38°C° 0 mm 8 mps 755 mmHg 24%
    10:00 +39°C° 0 mm 7 mps 755 mmHg 25%
    11:00 +40°C° 0 mm 7 mps 755 mmHg 26%
    12:00 +41°C° 0 mm 7 mps 754 mmHg 27%
    13:00 +41°C° 0 mm 6 mps 754 mmHg 28%
    14:00 +41°C° 0 mm 6 mps 753 mmHg 29%
    15:00 +41°C° 0 mm 6 mps 753 mmHg 28%
    16:00 +40°C° 0 mm 5 mps 753 mmHg 28%
    17:00 +40°C° 0 mm 5 mps 752 mmHg 28%
    18:00 +37°C° 0 mm 5 mps 753 mmHg 31%
    19:00 +35°C° 0 mm 5 mps 753 mmHg 33%
    20:00 +33°C° 0 mm 5 mps 753 mmHg 36%
    21:00 +32°C° 0 mm 6 mps 753 mmHg 36%
    22:00 +32°C° 0 mm 6 mps 753 mmHg 36%
    23:00 +30°C° 0 mm 6 mps 753 mmHg 36%

    Day after tomorrow, 22 August, Thursday

    Time Temperature Precipitation Wind Pressure Humidity
    00:00 +30°C° 0 mm 6 mps 753 mmHg 35%
    01:00 +32°C° 0 mm 6 mps 753 mmHg 34%
    02:00 +32°C° 0 mm 6 mps 752 mmHg 33%
    03:00 +30°C° 0 mm 7 mps 753 mmHg 35%
    04:00 +29°C° 0 mm 8 mps 753 mmHg 38%
    05:00 +28°C° 0 mm 9 mps 753 mmHg 40%
    06:00 +32°C° 0 mm 9 mps 753 mmHg 34%
    07:00 +35°C° 0 mm 9 mps 753 mmHg 28%
    08:00 +38°C° 0 mm 9 mps 753 mmHg 23%
    09:00 +40°C° 0 mm 9 mps 753 mmHg 21%
    10:00 +42°C° 0 mm 9 mps 753 mmHg 20%
    11:00 +44°C° 0 mm 8 mps 753 mmHg 19%
    12:00 +44°C° 0 mm 8 mps 753 mmHg 21%
    13:00 +44°C° 0 mm 7 mps 752 mmHg 22%
    14:00 +44°C° 0 mm 6 mps 752 mmHg 24%
    15:00 +42°C° 0 mm 6 mps 751 mmHg 25%
    16:00 +41°C° 0 mm 6 mps 751 mmHg 25%
    17:00 +41°C° 0 mm 6 mps 751 mmHg 26%
    18:00 +38°C° 0 mm 6 mps 751 mmHg 28%
    19:00 +35°C° 0 mm 6 mps 752 mmHg 31%
    20:00 +33°C° 0 mm 6 mps 752 mmHg 33%
    21:00 +33°C° 0 mm 6 mps 752 mmHg 33%
    22:00 +33°C° 0 mm 7 mps 752 mmHg 32%
    23:00 +33°C° 0 mm 7 mps 752 mmHg 31%

    23 August, Friday

    Time Temperature Precipitation Wind Pressure Humidity
    00:00 +32°C° 0 mm 7 mps 752 mmHg 32%
    01:00 +32°C° 0 mm 8 mps 752 mmHg 33%
    02:00 +31°C° 0 mm 9 mps 752 mmHg 34%
    03:00 +31°C° 0 mm 9 mps 752 mmHg 36%
    04:00 +29°C° 0 mm 9 mps 752 mmHg 38%
    05:00 +29°C° 0 mm 9 mps 752 mmHg 40%
    06:00 +32°C° 0 mm 9 mps 752 mmHg 35%
    07:00 +34°C° 0 mm 9 mps 752 mmHg 30%
    08:00 +38°C° 0 mm 9 mps 752 mmHg 25%
    09:00 +39°C° 0 mm 9 mps 752 mmHg 24%
    10:00 +40°C° 0 mm 8 mps 752 mmHg 24%
    11:00 +43°C° 0 mm 8 mps 753 mmHg 23%
    12:00 +43°C° 0 mm 8 mps 752 mmHg 26%
    13:00 +43°C° 0 mm 7 mps 752 mmHg 28%
    14:00 +43°C° 0 mm 7 mps 751 mmHg 30%
    15:00 +41°C° 0 mm 6 mps 751 mmHg 32%
    16:00 +41°C° 0 mm 5 mps 751 mmHg 33%
    17:00 +40°C° 0 mm 4 mps 751 mmHg 34%
    18:00 +37°C° 0 mm 4 mps 751 mmHg 39%
    19:00 +35°C° 0 mm 4 mps 751 mmHg 45%
    20:00 +33°C° 0 mm 4 mps 751 mmHg 50%
    21:00 +33°C° 0 mm 4 mps 752 mmHg 48%
    22:00 +33°C° 0 mm 4 mps 752 mmHg 46%
    23:00 +32°C° 0 mm 4 mps 752 mmHg 44%

    24 August, Saturday

    Time Temperature Precipitation Wind Pressure Humidity
    00:00 +32°C° 0 mm 6 mps 752 mmHg 45%
    01:00 +30°C° 0 mm 7 mps 751 mmHg 46%
    02:00 +31°C° 0 mm 9 mps 751 mmHg 47%
    03:00 +29°C° 0 mm 9 mps 752 mmHg 50%
    04:00 +29°C° 0 mm 8 mps 752 mmHg 52%
    05:00 +28°C° 0 mm 8 mps 752 mmHg 55%
    06:00 +32°C° 0 mm 8 mps 752 mmHg 48%
    07:00 +34°C° 0 mm 8 mps 753 mmHg 41%
    08:00 +36°C° 0 mm 7 mps 753 mmHg 34%
    09:00 +38°C° 0 mm 7 mps 753 mmHg 34%
    10:00 +40°C° 0 mm 7 mps 753 mmHg 33%
    11:00 +41°C° 0 mm 7 mps 753 mmHg 33%
    12:00 +41°C° 0 mm 6 mps 753 mmHg 33%
    13:00 +41°C° 0 mm 5 mps 752 mmHg 34%
    14:00 +41°C° 0 mm 4 mps 752 mmHg 35%
    15:00 +40°C° 0 mm 3 mps 752 mmHg 34%
    16:00 +40°C° 0 mm 2 mps 752 mmHg 33%
    17:00 +40°C° 0 mm 2 mps 752 mmHg 32%
    18:00 +36°C° 0 mm 1 mps 752 mmHg 37%
    19:00 +34°C° 0 mm 1 mps 752 mmHg 42%
    20:00 +32°C° 0 mm 1 mps 753 mmHg 47%
    21:00 +32°C° 0 mm 1 mps 753 mmHg 49%
    22:00 +31°C° 0 mm 1 mps 753 mmHg 51%
    23:00 +31°C° 0 mm 1 mps 753 mmHg 53%

    25 August, Sunday

    Time Temperature Precipitation Wind Pressure Humidity
    00:00 +30°C° 0 mm 2 mps 753 mmHg 52%
    01:00 +30°C° 0 mm 2 mps 752 mmHg 51%
    02:00 +30°C° 0 mm 3 mps 752 mmHg 50%
    03:00 +29°C° 0 mm 4 mps 753 mmHg 52%
    04:00 +29°C° 0 mm 5 mps 753 mmHg 55%
    05:00 +29°C° 0 mm 7 mps 753 mmHg 58%
    06:00 +32°C° 0 mm 7 mps 753 mmHg 49%
    07:00 +35°C° 0 mm 7 mps 754 mmHg 40%
    08:00 +39°C° 0 mm 7 mps 754 mmHg 31%
    09:00 +40°C° 0 mm 7 mps 754 mmHg 29%
    10:00 +43°C° 0 mm 7 mps 754 mmHg 28%
    11:00 +44°C° 0 mm 6 mps 754 mmHg 26%
    12:00 +44°C° 0 mm 6 mps 753 mmHg 27%
    13:00 +43°C° 0 mm 5 mps 753 mmHg 28%
    14:00 +43°C° 0 mm 4 mps 752 mmHg 29%
    15:00 +42°C° 0 mm 3 mps 752 mmHg 29%
    16:00 +41°C° 0 mm 2 mps 752 mmHg 29%
    17:00 +40°C° 0 mm 1 mps 751 mmHg 28%
    18:00 +37°C° 0 mm 1 mps 752 mmHg 31%
    19:00 +36°C° 0 mm 1 mps 752 mmHg 34%
    20:00 +34°C° 0 mm 1 mps 752 mmHg 37%
    21:00 +33°C° 0 mm 1 mps 753 mmHg 37%
    22:00 +34°C° 0 mm 2 mps 753 mmHg 37%
    23:00 +34°C° 0 mm 2 mps 753 mmHg 37%
    Show more